Weather History for Ocala, FL

Change the Weather History Date:

Friday, November 23, 2012

  Actual Average Record
Temperature  
Mean Temperature 53 °F -  
Max Temperature 73 °F 72 °F 82 °F (1998)
Min Temperature 33 °F 48 °F 28 °F (2000)
Degree Days  
Heating Degree Days 12    
Growing Degree Days 3 (Base 50)    
Moisture  
Dew Point 35 °F    
Average Humidity 68    
Maximum Humidity 87    
Minimum Humidity 25    
Precipitation  
Precipitation 0.00 in - - ()
Sea Level Pressure  
Sea Level Pressure 30.17 in    
Wind  
Wind Speed 2 mph (West)    
Max Wind Speed 13 mph    
Max Gust Speed 16 mph    
Visibility 10 miles    
Events      
Averages and records for this station are not official NWS values.
T = Trace of Precipitation, MM = Missing Value Source: NWS Daily Summary

Daily Weather History Graph

Daily Weather History Graph

Search for Another Location

Airport:

Trip Planner

Search our weather history database for the weather conditions in past years. The results will help you decide how hot, cold, wet, or windy it might be!

Date:

Astronomy

Nov. 23, 2012 Rise Set
Actual Time 6:59 AM EST 5:31 PM EST
Civil Twilight 6:33 AM EST 5:56 PM EST
Nautical Twilight 6:04 AM EST 6:25 PM EST
Astronomical Twilight 5:36 AM EST 6:54 PM EST
Moon 2:29 PM EST 2:35 AM EST
Length of Visible Light 11h 22m
Length of Day
10h 31m
Waxing Gibbous, 79% of the Moon is Illuminated
Nov 23
Waxing Gibbous
Nov 28
Full
Dec 6
Last Quarter
Dec 13
New
Dec 20
First Quarter

Hourly Weather History & Observations

Time (EST) Temp. Dew Point Humidity Pressure Visibility Wind Dir Wind Speed Gust Speed Precip Events Conditions
12:15 AM 39.2 °F 32.0 °F 75% 30.20 in 10.0 mi Calm Calm - N/A   Clear
12:35 AM 37.4 °F 30.2 °F 75% 30.20 in 10.0 mi Calm Calm - N/A   Clear
12:55 AM 37.4 °F 30.2 °F 75% 30.19 in 10.0 mi Calm Calm - N/A   Clear
1:15 AM 37.4 °F 30.2 °F 75% 30.19 in 10.0 mi Calm Calm - N/A   Clear
1:35 AM 35.6 °F 30.2 °F 81% 30.19 in 10.0 mi Calm Calm - N/A   Clear
1:55 AM 35.6 °F 30.2 °F 81% 30.19 in 10.0 mi Calm Calm - N/A   Clear
2:15 AM 35.6 °F 30.2 °F 81% 30.18 in 10.0 mi Calm Calm - N/A   Clear
2:35 AM 35.6 °F 30.2 °F 81% 30.18 in 10.0 mi Calm Calm - N/A   Clear
2:55 AM 35.6 °F 30.2 °F 81% 30.19 in 10.0 mi Calm Calm - N/A   Clear
3:15 AM 35.6 °F 30.2 °F 81% 30.19 in 10.0 mi Calm Calm - N/A   Clear
3:35 AM 35.6 °F 28.4 °F 75% 30.19 in 10.0 mi Calm Calm - N/A   Clear
3:55 AM 33.8 °F 28.4 °F 81% 30.19 in 10.0 mi Calm Calm - N/A   Clear
4:15 AM 33.8 °F 28.4 °F 81% 30.18 in 10.0 mi Calm Calm - N/A   Clear
4:35 AM 33.8 °F 28.4 °F 81% 30.18 in 10.0 mi Calm Calm - N/A   Clear
4:55 AM 33.8 °F 28.4 °F 81% 30.18 in 10.0 mi Calm Calm - N/A   Clear
5:15 AM 33.8 °F 28.4 °F 81% 30.19 in 10.0 mi Calm Calm - N/A   Clear
5:35 AM 33.8 °F 28.4 °F 81% 30.19 in 10.0 mi Calm Calm - N/A   Clear
5:55 AM 33.8 °F 28.4 °F 81% 30.19 in 10.0 mi Calm Calm - N/A   Clear
6:15 AM 33.8 °F 28.4 °F 81% 30.20 in 10.0 mi Calm Calm - N/A   Clear
6:35 AM 33.8 °F 28.4 °F 81% 30.21 in 10.0 mi Calm Calm - N/A   Clear
7:50 AM 33.8 °F 28.4 °F 81% 30.23 in 10.0 mi Calm Calm - N/A   Clear
8:50 AM 48.2 °F 37.4 °F 66% 30.24 in 10.0 mi Calm Calm - N/A   Clear
9:50 AM 60.8 °F 35.6 °F 39% 30.25 in 10.0 mi North 3.5 mph - N/A   Clear
10:50 AM 66.2 °F 35.6 °F 32% 30.24 in 10.0 mi NNW 6.9 mph - N/A   Clear
11:50 AM 68.0 °F 35.6 °F 30% 30.22 in 10.0 mi NNW 10.4 mph - N/A   Clear
12:50 PM 71.6 °F 35.6 °F 27% 30.18 in 10.0 mi NNW 12.7 mph 16.1 mph N/A   Clear
1:50 PM 71.6 °F 35.6 °F 27% 30.15 in 10.0 mi North 9.2 mph - N/A   Clear
2:50 PM 73.4 °F 35.6 °F 25% 30.13 in 10.0 mi North 11.5 mph - N/A   Clear
3:50 PM 73.4 °F 35.6 °F 25% 30.10 in 10.0 mi NNW 11.5 mph - N/A   Clear
4:55 PM 69.8 °F 37.4 °F 31% 30.10 in 10.0 mi NNW 4.6 mph - N/A   Clear
5:50 PM 60.8 °F 37.4 °F 42% 30.11 in 10.0 mi SW 6.9 mph - N/A   Clear
6:50 PM 57.2 °F 41.0 °F 55% 30.11 in 10.0 mi SW 5.8 mph - N/A   Clear
7:55 PM 55.4 °F 42.8 °F 63% 30.13 in 10.0 mi SW 4.6 mph - N/A   Clear
8:15 PM 53.6 °F 42.8 °F 67% 30.14 in 10.0 mi SW 4.6 mph - N/A   Clear
8:35 PM 53.6 °F 44.6 °F 72% 30.14 in 10.0 mi Calm Calm - N/A   Clear
8:55 PM 53.6 °F 42.8 °F 67% 30.14 in 10.0 mi South 4.6 mph - N/A   Clear
9:15 PM 51.8 °F 44.6 °F 76% 30.13 in 10.0 mi SSW 3.5 mph - N/A   Clear
9:35 PM 48.2 °F 41.0 °F 76% 30.13 in 10.0 mi Calm Calm - N/A   Clear
9:55 PM 48.2 °F 41.0 °F 76% 30.13 in 10.0 mi SSW 3.5 mph - N/A   Clear
10:15 PM 46.4 °F 39.2 °F 76% 30.13 in 10.0 mi Calm Calm - N/A   Clear
10:35 PM 48.2 °F 44.6 °F 87% 30.12 in 10.0 mi Calm Calm - N/A   Clear
10:55 PM 48.2 °F 42.8 °F 82% 30.12 in 10.0 mi SSW 3.5 mph - N/A   Clear
11:15 PM 48.2 °F 42.8 °F 82% 30.11 in 8.0 mi SSW 3.5 mph - N/A   Clear
11:35 PM 51.8 °F 46.4 °F 82% 30.11 in 8.0 mi Calm Calm - N/A   Clear
11:55 PM 46.4 °F 41.0 °F 81% 30.11 in 2.0 mi Calm Calm - N/A   Clear